Lewiston, ID

3:48 AM PDT on March 26, 2017 (GMT -0700)
Lewiston-Nez Perce County

Weather History for KLWS - May, 2013

Change the Weather History Date:

Thursday, May 16, 2013

  Actual Average Record
Temperature  
Mean Temperature 62 °F 59 °F  
Max Temperature 71 °F 71 °F 96 °F (2006)
Min Temperature 53 °F 47 °F 34 °F (1983)
Degree Days  
Heating Degree Days 3 7  
Month to date heating degree days 52 140  
Since 1 July heating degree days 4476 5020  
Cooling Degree Days 0 1  
Month to date cooling degree days 57 13  
Year to date cooling degree days 57 15  
Growing Degree Days 13 (Base 50)    
Moisture  
Dew Point 42 °F    
Average Humidity 47    
Maximum Humidity 62    
Minimum Humidity 31    
Precipitation  
Precipitation 0.00 in 0.05 in 1.65 in (1897)
Month to date precipitation 0.04 0.79  
Year to date precipitation 3.05 5.12  
Snow  
Snow 0.00 in 0.00 in T in (1974)
Month to date snowfall 0.0 0.0  
Since 1 July snowfall 2.6 10.5  
Snow Depth 0.00 in    
Sea Level Pressure  
Sea Level Pressure 29.89 in    
Wind  
Wind Speed 4 mph (NE)    
Max Wind Speed 10 mph    
Max Gust Speed 14 mph    
Visibility 10 miles    
Events      
T = Trace of Precipitation, MM = Missing Value Source: NWS Daily Summary

Daily Weather History Graph

Daily Weather History Graph

Search for Another Location

Airport or City:

Trip Planner

Search our weather history database for the weather conditions in past years. The results will help you decide how hot, cold, wet, or windy it might be!

Date:

Astronomy

May. 16, 2013 Rise Set
Actual Time 5:13 AM PDT 8:16 PM PDT
Civil Twilight 4:37 AM PDT 8:52 PM PDT
Nautical Twilight 3:51 AM PDT 9:38 PM PDT
Astronomical Twilight 2:56 AM PDT 10:34 PM PDT
Moon 10:57 AM PDT (5/16) 12:33 AM PDT (5/16)
Length of Visible Light 16h 14m
Length of Day
15h 03m
Waxing Crescent, 36% of the Moon is Illuminated
May 16
Waxing Crescent
May 17
First Quarter
May 24
Full
May 31
Last Quarter
Jun 8
New

Hourly Weather History & Observations

Time (PDT) Temp. Dew Point Humidity Pressure Visibility Wind Dir Wind Speed Gust Speed Precip Events Conditions
12:56 AM 60.1 °F 41.0 °F 49% 29.92 in 10.0 mi NW 10.4 mph - N/A   Overcast
1:56 AM 59.0 °F 41.0 °F 51% 29.93 in 10.0 mi NW 6.9 mph - N/A   Overcast
2:56 AM 57.9 °F 41.0 °F 53% 29.92 in 10.0 mi Calm Calm - N/A   Overcast
3:56 AM 57.9 °F 42.1 °F 56% 29.92 in 10.0 mi ESE 3.5 mph - N/A   Overcast
4:56 AM 57.0 °F 42.1 °F 57% 29.92 in 10.0 mi ESE 4.6 mph - N/A   Overcast
5:56 AM 57.0 °F 43.0 °F 59% 29.93 in 10.0 mi East 4.6 mph - N/A   Overcast
6:56 AM 57.0 °F 43.0 °F 59% 29.94 in 10.0 mi East 4.6 mph - N/A   Overcast
7:56 AM 57.9 °F 45.0 °F 62% 29.94 in 10.0 mi NNE 4.6 mph - N/A   Overcast
8:56 AM 59.0 °F 44.1 °F 58% 29.94 in 10.0 mi NNE 6.9 mph - N/A   Overcast
9:56 AM 60.1 °F 44.1 °F 55% 29.94 in 10.0 mi WNW 4.6 mph - N/A   Overcast
10:56 AM 61.0 °F 44.1 °F 54% 29.94 in 10.0 mi NW 3.5 mph - N/A   Overcast
11:56 AM 62.1 °F 43.0 °F 50% 29.94 in 10.0 mi WSW 5.8 mph - N/A   Overcast
12:56 PM 64.0 °F 43.0 °F 46% 29.92 in 10.0 mi West 5.8 mph - N/A   Overcast
1:56 PM 66.0 °F 42.1 °F 42% 29.89 in 10.0 mi Variable 4.6 mph - N/A   Mostly Cloudy
2:56 PM 66.9 °F 39.9 °F 37% 29.87 in 10.0 mi Calm Calm - N/A   Clear
3:56 PM 69.1 °F 39.0 °F 33% 29.85 in 10.0 mi Calm Calm - N/A   Mostly Cloudy
4:56 PM 71.1 °F 39.9 °F 32% 29.83 in 10.0 mi NE 4.6 mph - N/A   Clear
5:56 PM 70.0 °F 41.0 °F 35% 29.82 in 10.0 mi NNE 4.6 mph - N/A   Clear
6:56 PM 68.0 °F 42.1 °F 39% 29.82 in 10.0 mi ENE 6.9 mph - N/A   Clear
7:56 PM 66.0 °F 42.1 °F 42% 29.82 in 10.0 mi East 4.6 mph - N/A   Clear
8:56 PM 62.1 °F 42.1 °F 48% 29.83 in 10.0 mi SE 4.6 mph - N/A   Clear
9:56 PM 61.0 °F 42.1 °F 50% 29.84 in 10.0 mi Calm Calm - N/A   Partly Cloudy
10:56 PM 55.9 °F 42.1 °F 60% 29.85 in 10.0 mi SSE 3.5 mph - N/A   Clear
11:56 PM 55.9 °F 41.0 °F 57% 29.86 in 10.0 mi Calm Calm - N/A   Clear